SL-18 R/B

Satellite information

Favourite Embed

Satellite Type and Status

ROCKET BODYIN ORBIT

Key statistics

Satellite SL-18 R/B at a glance.

Uptime

11730

Days in orbit

Revolutions

≈ 14.3

Per day

Orbit

LEO

Low Earth Orbit

Inclination

75.8

Latest

Satellite identification and parameters

Extended collection of information and parameters for SL-18 R/B.

Object identification

Identified? True

Debris? False

Object name: SL-18 R/B

International designator: 1993-014B

Object number (NORAD): 22562

Object ID (CCSDS): 22562

Country: COMMONWEALTH OF INDEPENDENT STATES (CIS)

Current information (Y/N): Y

RCS size: LARGE

Orbital parameters

Period: 100.673 minutes

Inclination: 75.7592 deg

SMA: 7168.626 km

Apoapsis: 906.273 km

Periapsis: 674.709 km

RAAN: 110.6687 deg

Eccentricy: 0.0161512

Argument of periapsis: 99.6266 deg

Mean anomaly: 262.3182 deg

Mean motion: 14.30371662 rev/day

Mean motion (dot): 0.00000442 rev/day2

B* drag term: 0.0001519 1/REarth

Two-line elements (TLE)

Creation date: May 6, 2025, 3:54 a.m.

Reference frame: TEME

Reference center: EARTH

Epoch: May 5, 2025, 4:25 p.m. UTC

TLE line 0: 0 SL-18 R/B

TLE line 1: 1 22562U 93014B 25125.68440314 .00000442 00000-0 15190-3 0 9998

TLE line 2: 2 22562 75.7592 110.6687 0161512 99.6266 262.3182 14.30371662673561

Live tracking on map

Real-time ground track for satellite SL-18 R/B.

In-orbit conjunctions

A list of the most updated potential collisions computed for object SL-18 R/B.

Target Orbit TCA Probability of collision Miss distance Type
FENGYUN 1C DEB SSO 2025-04-11 11:37:23 0.0001727449 95.0 (m) DEBRIS
FENGYUN 1C DEB SSO 2025-04-10 09:13:59 0.0001065472 208.0 (m) DEBRIS
COSMOS 1275 DEB LEO 2024-10-25 02:17:40 0.000124879 981.0 (m) DEBRIS
COSMOS 2251 DEB LEO 2024-10-11 17:35:01 0.000149009 246.0 (m) DEBRIS
NOAA 13 SSO 2024-06-06 09:54:22 0.0002403899 167.0 (m) PAYLOAD

Associated space launch

EKA 1 and 2 were vehicle evaluation payloads on the maiden flights of the Start-1 and Start launch vehicles.

SL-18 R/B was lifted into orbit during the mission ‘Start-1 | EKA-1’, on board a Start-1 space rocket.

The launch took place on March 25, 1993, 1:15 p.m. from 158.

For more information about the launch, click the button.

Launch to space Start-1 | EKA-1
Start-1 | EKA-1

Agency: N/A

Status: Launch Successful

Launch date: March 25, 1993, 1:15 p.m. UTC

Rocket: Start-1

Launch pad: 158

Location: Plesetsk Cosmodrome, Russian Federation

...

Latest news about this satellite

There are no fresh news available about this satellite. Check back as we update our databases every day.


Newsletter sign-up

Weekly statistics, charts and insights to help you stay on top of the space industry.